Orbital Elements at Epoch 2459000.5 (2020-May-31.0) TDB
Reference: JPL 6 (heliocentric ecliptic J2000)
Element | Value | Uncertainty (1-sigma) | Units |
e | .1772487541397945 | 4.0365e-08 | |
a | 2.568439523345005 | 4.1141e-08 | au |
q | 2.113186817748695 | 1.0414e-07 | au |
i | 14.71937208232358 | 9.7797e-06 | deg |
node | 129.9150905000966 | 2.4906e-05 | deg |
peri | 121.7596982912876 | 4.3039e-05 | deg |
M | 302.0328308020382 | 3.683e-05 | deg |
tp | 2459242.592889945935 (2021-Jan-28.09288995) | 0.00015653 | TDB |
period | 1503.49657549952 4.12 | 3.6124e-05 9.89e-08 | d yr |
n | .2394418489981555 | 5.753e-09 | deg/d |
Q | 3.023692228941314 | 4.8433e-08 | au |
|
| | Orbit Determination Parameters
Additional Information
|